| time (UTC) | temp C | wind direction | speed KPH | gust KPH | rain 1hr cm | rain 24hr cm | rain mn cm | humidity % | barometer mb |
| 20260506003016 | 23 | 180 | 1.6 | 6.4 | 0.00 | 0.00 | 0.00 | 41 | 1014.3 |
| 20260506002016 | 23 | 158 | 1.6 | 8.0 | 0.00 | 0.00 | 0.00 | 41 | 1014.2 |
| 20260506001016 | 23 | 0 | 1.6 | 9.7 | 0.00 | 0.00 | 0.00 | 42 | 1014.4 |
| 20260506000016 | 23 | 0 | 1.6 | 6.4 | 0.00 | 0.00 | 0.00 | 42 | 1014.2 |
| 20260505235016 | 23 | 0.0 | 0.0 | 0.00 | 0.00 | 0.00 | 43 | 1014.3 | |
| 20260505234015 | 23 | 0.0 | 0.0 | 0.00 | 0.00 | 0.00 | 42 | 1014.2 | |
| 20260505233016 | 24 | 180 | 1.6 | 6.4 | 0.00 | 0.00 | 0.00 | 39 | 1014.3 |
| 20260505232016 | 24 | 180 | 3.2 | 11.3 | 0.00 | 0.00 | 0.00 | 38 | 1014.3 |
| 20260505231015 | 24 | 0 | 3.2 | 8.0 | 0.00 | 0.00 | 0.00 | 37 | 1014.1 |
| 20260505230036 | 24 | 0 | 1.6 | 8.0 | 0.00 | 0.00 | 0.00 | 38 | 1014.3 |
| 20260505225015 | 25 | 0 | 1.6 | 4.8 | 0.00 | 0.00 | 0.00 | 37 | 1014.4 |
| 20260505224036 | 25 | 0 | 3.2 | 9.7 | 0.00 | 0.00 | 0.00 | 36 | 1014.4 |
| 20260505223016 | 25 | 0.0 | 1.6 | 0.00 | 0.00 | 0.00 | 40 | 1014.4 | |
| 20260505222035 | 25 | 0 | 3.2 | 16.1 | 0.00 | 0.00 | 0.00 | 36 | 1014.4 |
| 20260505221015 | 26 | 0 | 3.2 | 9.7 | 0.00 | 0.00 | 0.00 | 36 | 1014.3 |
| 20260505220015 | 26 | 0 | 4.8 | 12.9 | 0.00 | 0.00 | 0.00 | 36 | 1014.1 |
| 20260505215015 | 26 | 203 | 4.8 | 14.5 | 0.00 | 0.00 | 0.00 | 33 | 1014.5 |
| 20260505214035 | 26 | 158 | 4.8 | 9.7 | 0.00 | 0.00 | 0.00 | 34 | 1014.5 |
| 20260505213016 | 26 | 203 | 4.8 | 12.9 | 0.00 | 0.00 | 0.00 | 32 | 1014.5 |
| 20260505212035 | 26 | 203 | 3.2 | 9.7 | 0.00 | 0.00 | 0.00 | 34 | 1014.6 |
| 20260505211015 | 27 | 203 | 4.8 | 16.1 | 0.00 | 0.00 | 0.00 | 34 | 1014.7 |
| 20260505210017 | 27 | 135 | 3.2 | 11.3 | 0.00 | 0.00 | 0.00 | 32 | 1014.7 |
| 20260505205017 | 27 | 180 | 3.2 | 11.3 | 0.00 | 0.00 | 0.00 | 34 | 1014.8 |
| 20260505204016 | 27 | 203 | 4.8 | 11.3 | 0.00 | 0.00 | 0.00 | 33 | 1014.8 |
| 20260505203018 | 27 | 180 | 4.8 | 11.3 | 0.00 | 0.00 | 0.00 | 32 | 1015.0 |
| 20260505202017 | 27 | 158 | 4.8 | 9.7 | 0.00 | 0.00 | 0.00 | 33 | 1015.1 |
| 20260505201017 | 27 | 203 | 4.8 | 9.7 | 0.00 | 0.00 | 0.00 | 32 | 1015.2 |
| 20260505200017 | 26 | 180 | 3.2 | 11.3 | 0.00 | 0.00 | 0.00 | 33 | 1015.4 |
| 20260505195017 | 27 | 203 | 6.4 | 14.5 | 0.00 | 0.00 | 0.00 | 31 | 1015.8 |
| 20260505194037 | 26 | 0 | 6.4 | 14.5 | 0.00 | 0.00 | 0.00 | 34 | 1016.0 |
| 20260505192018 | 26 | 180 | 3.2 | 12.9 | 0.00 | 0.00 | 0.00 | 35 | 1015.9 |
| 20260505191017 | 26 | 0 | 1.6 | 9.7 | 0.00 | 0.00 | 0.00 | 33 | 1016.0 |
| 20260505190017 | 27 | 0 | 3.2 | 8.0 | 0.00 | 0.00 | 0.00 | 33 | 1016.1 |
| 20260505185017 | 27 | 0 | 6.4 | 16.1 | 0.00 | 0.00 | 0.00 | 35 | 1016.2 |
| 20260505184017 | 26 | 0 | 3.2 | 12.9 | 0.00 | 0.00 | 0.00 | 36 | 1016.1 |
| 20260505183017 | 27 | 0 | 4.8 | 8.0 | 0.00 | 0.00 | 0.00 | 33 | 1016.3 |
| 20260505182017 | 27 | 0 | 4.8 | 16.1 | 0.00 | 0.00 | 0.00 | 34 | 1016.4 |
| 20260505181018 | 26 | 0 | 4.8 | 17.7 | 0.00 | 0.00 | 0.00 | 34 | 1016.7 |
| 20260505180016 | 27 | 0 | 3.2 | 4.8 | 0.00 | 0.00 | 0.00 | 36 | 1016.9 |
| 20260505175017 | 26 | 0 | 4.8 | 16.1 | 0.00 | 0.00 | 0.00 | 38 | 1017.1 |
| 20260505174017 | 27 | 0 | 3.2 | 6.4 | 0.00 | 0.00 | 0.00 | 36 | 1017.2 |
| 20260505173017 | 26 | 0 | 3.2 | 8.0 | 0.00 | 0.00 | 0.00 | 36 | 1017.3 |
| 20260505172017 | 26 | 0 | 3.2 | 9.7 | 0.00 | 0.00 | 0.00 | 37 | 1017.4 |
| 20260505171017 | 26 | 0 | 6.4 | 17.7 | 0.00 | 0.00 | 0.00 | 36 | 1017.4 |
| 20260505170017 | 26 | 0 | 3.2 | 9.7 | 0.00 | 0.00 | 0.00 | 39 | 1017.4 |
| 20260505165016 | 25 | 0 | 4.8 | 8.0 | 0.00 | 0.00 | 0.00 | 39 | 1017.2 |
| 20260505164016 | 25 | 0 | 3.2 | 9.7 | 0.00 | 0.00 | 0.00 | 38 | 1017.3 |
| 20260505163017 | 25 | 0 | 4.8 | 12.9 | 0.00 | 0.00 | 0.00 | 41 | 1017.4 |
| 20260505162016 | 25 | 0 | 6.4 | 14.5 | 0.00 | 0.00 | 0.00 | 39 | 1017.5 |
| 20260505161016 | 25 | 0 | 6.4 | 19.3 | 0.00 | 0.00 | 0.00 | 39 | 1017.6 |
| 20260505153016 | 22 | 0 | 1.6 | 4.8 | 0.00 | 0.00 | 0.00 | 52 | 1017.5 |
| 20260505152016 | 21 | 0 | 1.6 | 4.8 | 0.00 | 0.00 | 0.00 | 54 | 1017.4 |
| 20260505151016 | 21 | 0 | 4.8 | 12.9 | 0.00 | 0.00 | 0.00 | 54 | 1017.6 |
| 20260505125016 | 13 | 0 | 1.6 | 4.8 | 0.00 | 0.00 | 0.00 | 73 | 1017.0 |
| 20260505124016 | 13 | 0.0 | 0.0 | 0.00 | 0.00 | 0.00 | 74 | 1016.9 | |
| 20260505123037 | 13 | 0.0 | 0.0 | 0.00 | 0.00 | 0.00 | 76 | 1016.9 | |
| 20260505122016 | 12 | 0.0 | 3.2 | 0.00 | 0.00 | 0.00 | 79 | 1016.9 | |
| 20260505121016 | 12 | 180 | 1.6 | 4.8 | 0.00 | 0.00 | 0.00 | 80 | 1016.8 |
| 20260505120036 | 11 | 0.0 | 0.0 | 0.00 | 0.00 | 0.00 | 81 | 1016.9 | |
| 20260505115016 | 11 | 0.0 | 0.0 | 0.00 | 0.00 | 0.00 | 84 | 1016.7 | |
| 20260505114016 | 10 | 0.0 | 0.0 | 0.00 | 0.00 | 0.00 | 82 | 1016.4 | |
| 20260505113016 | 10 | 0.0 | 0.0 | 0.00 | 0.00 | 0.00 | 82 | 1016.3 | |
| 20260505112017 | 10 | 0.0 | 0.0 | 0.00 | 0.00 | 0.00 | 81 | 1016.1 | |
| 20260505111015 | 10 | 0.0 | 0.0 | 0.00 | 0.00 | 0.00 | 81 | 1016.0 | |
| 20260505102016 | 10 | 0.0 | 0.0 | 0.00 | 0.00 | 0.00 | 80 | 1015.9 | |
| 20260505101016 | 10 | 0.0 | 0.0 | 0.00 | 0.00 | 0.00 | 80 | 1015.9 | |
| 20260505100016 | 10 | 0.0 | 0.0 | 0.00 | 0.00 | 0.00 | 81 | 1016.3 | |
| 20260505095015 | 10 | 0.0 | 0.0 | 0.00 | 0.00 | 0.00 | 80 | 1016.2 | |
| 20260505094036 | 10 | 0.0 | 0.0 | 0.00 | 0.00 | 0.00 | 80 | 1016.1 | |
| 20260505093015 | 10 | 0.0 | 1.6 | 0.00 | 0.00 | 0.00 | 81 | 1016.0 | |
| 20260505092015 | 10 | 0.0 | 1.6 | 0.00 | 0.00 | 0.00 | 81 | 1016.0 | |
| 20260505091015 | 10 | 203 | 1.6 | 3.2 | 0.00 | 0.00 | 0.00 | 82 | 1016.1 |
| 20260505090037 | 10 | 0.0 | 0.0 | 0.00 | 0.00 | 0.00 | 82 | 1016.3 | |
| 20260505085038 | 10 | 0.0 | 1.6 | 0.00 | 0.00 | 0.00 | 83 | 1016.3 | |
| 20260505084037 | 10 | 0.0 | 1.6 | 0.00 | 0.00 | 0.00 | 84 | 1016.3 | |
| 20260505083017 | 10 | 0.0 | 3.2 | 0.00 | 0.00 | 0.00 | 84 | 1016.4 | |
| 20260505082016 | 10 | 0.0 | 0.0 | 0.00 | 0.00 | 0.00 | 84 | 1016.4 | |
| 20260505081017 | 10 | 0.0 | 0.0 | 0.00 | 0.00 | 0.00 | 84 | 1016.5 | |
| 20260505080018 | 10 | 0.0 | 0.0 | 0.00 | 0.00 | 0.00 | 83 | 1016.4 | |
| 20260505075017 | 10 | 0.0 | 0.0 | 0.00 | 0.00 | 0.00 | 83 | 1016.4 | |
| 20260505074017 | 10 | 0.0 | 0.0 | 0.00 | 0.00 | 0.00 | 81 | 1016.5 | |
| 20260505073037 | 11 | 0.0 | 0.0 | 0.00 | 0.00 | 0.00 | 81 | 1016.3 | |
| 20260505072017 | 11 | 0.0 | 0.0 | 0.00 | 0.00 | 0.00 | 80 | 1016.4 | |
| 20260505071017 | 11 | 0.0 | 0.0 | 0.00 | 0.00 | 0.00 | 79 | 1016.4 | |
| 20260505070017 | 11 | 0.0 | 0.0 | 0.00 | 0.00 | 0.00 | 79 | 1016.4 | |
| 20260505065018 | 11 | 0.0 | 0.0 | 0.00 | 0.00 | 0.00 | 78 | 1016.3 | |
| 20260505064017 | 11 | 0.0 | 0.0 | 0.00 | 0.00 | 0.00 | 77 | 1016.5 | |
| 20260505063017 | 11 | 0.0 | 0.0 | 0.00 | 0.00 | 0.00 | 75 | 1016.4 | |
| 20260505062037 | 12 | 0.0 | 0.0 | 0.00 | 0.00 | 0.00 | 74 | 1016.6 | |
| 20260505061017 | 12 | 0.0 | 0.0 | 0.00 | 0.00 | 0.00 | 74 | 1016.7 | |
| 20260505060057 | 12 | 0.0 | 0.0 | 0.00 | 0.00 | 0.00 | 73 | 1016.6 | |
| 20260505055017 | 12 | 0.0 | 0.0 | 0.00 | 0.00 | 0.00 | 73 | 1016.8 | |
| 20260505054018 | 13 | 0.0 | 0.0 | 0.00 | 0.00 | 0.00 | 71 | 1016.8 | |
| 20260505053016 | 13 | 0.0 | 0.0 | 0.00 | 0.00 | 0.00 | 70 | 1016.7 | |
| 20260505052017 | 13 | 0.0 | 0.0 | 0.00 | 0.00 | 0.00 | 69 | 1016.7 | |
| 20260505051037 | 13 | 0.0 | 0.0 | 0.00 | 0.00 | 0.00 | 68 | 1016.6 | |
| 20260505041017 | 13 | 0.0 | 0.0 | 0.00 | 0.00 | 0.00 | 65 | 1016.6 | |
| 20260505040036 | 14 | 0.0 | 0.0 | 0.00 | 0.00 | 0.00 | 65 | 1016.6 | |
| 20260505035016 | 14 | 0.0 | 0.0 | 0.00 | 0.00 | 0.00 | 66 | 1016.6 | |
| 20260505034036 | 14 | 0.0 | 0.0 | 0.00 | 0.00 | 0.00 | 65 | 1016.6 | |
| 20260505033016 | 15 | 0.0 | 0.0 | 0.00 | 0.00 | 0.00 | 63 | 1016.4 | |
| 20260505032017 | 15 | 0.0 | 0.0 | 0.00 | 0.00 | 0.00 | 64 | 1016.5 | |
| 20260505031036 | 15 | 0.0 | 0.0 | 0.00 | 0.00 | 0.00 | 62 | 1016.5 | |
| 20260505030016 | 15 | 0.0 | 0.0 | 0.00 | 0.00 | 0.00 | 61 | 1016.4 | |
| 20260505025036 | 15 | 0.0 | 0.0 | 0.00 | 0.00 | 0.00 | 60 | 1016.5 | |
| 20260505024016 | 16 | 0.0 | 0.0 | 0.00 | 0.00 | 0.00 | 59 | 1016.5 | |
| 20260505023016 | 16 | 0.0 | 0.0 | 0.00 | 0.00 | 0.00 | 58 | 1016.4 | |
| 20260505022017 | 16 | 0.0 | 0.0 | 0.00 | 0.00 | 0.00 | 58 | 1016.2 | |
| 20260505021016 | 16 | 0.0 | 0.0 | 0.00 | 0.00 | 0.00 | 58 | 1016.2 | |
| 20260505020016 | 16 | 0.0 | 0.0 | 0.00 | 0.00 | 0.00 | 56 | 1015.9 | |
| 20260505015016 | 16 | 0.0 | 0.0 | 0.00 | 0.00 | 0.00 | 56 | 1015.9 | |
| 20260505014016 | 17 | 0.0 | 0.0 | 0.00 | 0.00 | 0.00 | 53 | 1015.9 | |
| 20260505013016 | 17 | 0.0 | 0.0 | 0.00 | 0.00 | 0.00 | 52 | 1015.6 | |
| 20260505012016 | 18 | 0.0 | 0.0 | 0.00 | 0.00 | 0.00 | 51 | 1015.6 | |
| 20260505011016 | 18 | 0.0 | 0.0 | 0.00 | 0.00 | 0.00 | 50 | 1015.6 | |
| 20260505010016 | 19 | 0.0 | 0.0 | 0.00 | 0.00 | 0.00 | 46 | 1015.5 | |
| 20260505005016 | 20 | 0.0 | 0.0 | 0.00 | 0.00 | 0.00 | 45 | 1015.3 | |
| 20260505004016 | 20 | 0.0 | 1.6 | 0.00 | 0.00 | 0.00 | 43 | 1015.4 |